Time,TemperatureF,DewpointF,PressureIn,WindDirection,WindDirectionDegrees,WindSpeedMPH,WindSpeedGustMPH,Humidity,HourlyPrecipIn,Conditions,Clouds,dailyrainin,SolarRadiationWatts/m^2,SoftwareType,DateUTC
2013-08-16 00:05:00,68.5,34.3,29.55,North,-999,-999.0,-999.0,5,0.00,,,-99.99,0.0,Linux-Irox,2013-08-16 07:05:00,
2013-08-16 00:15:00,68.0,33.8,29.55,North,-999,-999.0,-999.0,5,0.00,,,-99.99,0.0,Linux-Irox,2013-08-16 07:15:00,
2013-08-16 00:25:00,67.5,33.3,29.56,North,-999,-999.0,-999.0,5,0.00,,,-99.99,0.0,Linux-Irox,2013-08-16 07:25:00,
2013-08-16 00:35:00,67.3,33.1,29.56,North,-999,-999.0,-999.0,5,0.00,,,-99.99,0.0,Linux-Irox,2013-08-16 07:35:00,
2013-08-16 00:45:00,67.3,33.1,29.56,North,-999,-999.0,-999.0,5,0.00,,,-99.99,0.0,Linux-Irox,2013-08-16 07:45:00,
2013-08-16 00:55:00,67.5,33.3,29.56,North,-999,-999.0,-999.0,5,0.00,,,-99.99,0.0,Linux-Irox,2013-08-16 07:55:00,
2013-08-16 01:05:00,66.6,32.4,29.58,North,-999,-999.0,-999.0,5,0.00,,,-99.99,0.0,Linux-Irox,2013-08-16 08:05:00,
2013-08-16 01:15:00,66.0,31.8,29.58,North,-999,-999.0,-999.0,5,0.00,,,-99.99,0.0,Linux-Irox,2013-08-16 08:15:00,
2013-08-16 01:25:00,66.4,32.2,29.56,North,-999,-999.0,-999.0,5,0.00,,,-99.99,0.0,Linux-Irox,2013-08-16 08:25:00,
2013-08-16 01:35:00,66.4,32.2,29.56,North,-999,-999.0,-999.0,5,0.00,,,-99.99,0.0,Linux-Irox,2013-08-16 08:35:00,
2013-08-16 01:45:00,66.4,32.2,29.55,North,-999,-999.0,-999.0,5,0.00,,,-99.99,0.0,Linux-Irox,2013-08-16 08:45:00,
2013-08-16 01:55:00,66.0,31.8,29.55,North,-999,-999.0,-999.0,5,0.00,,,-99.99,0.0,Linux-Irox,2013-08-16 08:55:00,
2013-08-16 02:05:00,65.7,31.5,29.55,North,-999,-999.0,-999.0,5,0.00,,,-99.99,0.0,Linux-Irox,2013-08-16 09:05:00,
2013-08-16 02:15:00,66.2,32.0,29.55,North,-999,-999.0,-999.0,5,0.00,,,-99.99,0.0,Linux-Irox,2013-08-16 09:15:00,
2013-08-16 02:25:00,65.8,31.6,29.55,North,-999,-999.0,-999.0,5,0.00,,,-99.99,0.0,Linux-Irox,2013-08-16 09:25:00,
2013-08-16 02:35:00,65.5,31.3,29.55,North,-999,-999.0,-999.0,5,0.00,,,-99.99,0.0,Linux-Irox,2013-08-16 09:35:00,
2013-08-16 02:45:00,65.3,31.1,29.54,North,-999,-999.0,-999.0,5,0.00,,,-99.99,0.0,Linux-Irox,2013-08-16 09:45:00,
2013-08-16 02:55:00,64.8,30.6,29.54,North,-999,-999.0,-999.0,5,0.00,,,-99.99,0.0,Linux-Irox,2013-08-16 09:55:00,
2013-08-16 03:05:00,64.4,30.2,29.55,North,-999,-999.0,-999.0,5,0.00,,,-99.99,0.0,Linux-Irox,2013-08-16 10:05:00,
2013-08-16 03:15:00,63.9,29.7,29.55,North,-999,-999.0,-999.0,5,0.00,,,-99.99,0.0,Linux-Irox,2013-08-16 10:15:00,
2013-08-16 03:25:00,63.7,29.5,29.56,North,-999,-999.0,-999.0,5,0.00,,,-99.99,0.0,Linux-Irox,2013-08-16 10:25:00,
2013-08-16 03:35:00,63.7,29.5,29.56,North,-999,-999.0,-999.0,5,0.00,,,-99.99,0.0,Linux-Irox,2013-08-16 10:35:00,
2013-08-16 03:45:00,63.7,29.5,29.56,North,-999,-999.0,-999.0,5,0.00,,,-99.99,0.0,Linux-Irox,2013-08-16 10:45:00,
2013-08-16 03:55:00,63.3,29.1,29.56,North,-999,-999.0,-999.0,5,0.00,,,-99.99,0.0,Linux-Irox,2013-08-16 10:55:00,
2013-08-16 04:05:00,63.5,29.3,29.56,North,-999,-999.0,-999.0,5,0.00,,,-99.99,0.0,Linux-Irox,2013-08-16 11:05:00,
2013-08-16 04:15:00,63.3,29.1,29.56,North,-999,-999.0,-999.0,5,0.00,,,-99.99,0.0,Linux-Irox,2013-08-16 11:15:00,
2013-08-16 04:25:00,62.8,28.6,29.55,North,-999,-999.0,-999.0,5,0.00,,,-99.99,0.0,Linux-Irox,2013-08-16 11:25:00,
2013-08-16 04:35:00,63.7,29.5,29.55,North,-999,-999.0,-999.0,5,0.00,,,-99.99,0.0,Linux-Irox,2013-08-16 11:35:00,
2013-08-16 04:45:00,63.1,28.9,29.56,North,-999,-999.0,-999.0,5,0.00,,,-99.99,0.0,Linux-Irox,2013-08-16 11:45:00,
2013-08-16 04:55:00,63.0,28.8,29.56,North,-999,-999.0,-999.0,5,0.00,,,-99.99,0.0,Linux-Irox,2013-08-16 11:55:00,
2013-08-16 05:05:00,63.0,28.8,29.57,North,-999,-999.0,-999.0,5,0.00,,,-99.99,0.0,Linux-Irox,2013-08-16 12:05:00,
2013-08-16 05:15:00,63.3,29.1,29.57,North,-999,-999.0,-999.0,5,0.00,,,-99.99,0.0,Linux-Irox,2013-08-16 12:15:00,
2013-08-16 05:25:00,63.5,29.3,29.57,North,-999,-999.0,-999.0,5,0.00,,,-99.99,0.0,Linux-Irox,2013-08-16 12:25:00,
2013-08-16 05:35:00,63.7,29.5,29.57,North,-999,-999.0,-999.0,5,0.00,,,-99.99,0.0,Linux-Irox,2013-08-16 12:35:00,
2013-08-16 05:45:00,63.9,29.7,29.56,North,-999,-999.0,-999.0,5,0.00,,,-99.99,0.0,Linux-Irox,2013-08-16 12:45:00,
2013-08-16 05:55:00,64.0,29.8,29.56,North,-999,-999.0,-999.0,5,0.00,,,-99.99,0.0,Linux-Irox,2013-08-16 12:55:00,
2013-08-16 06:05:00,64.2,30.0,29.57,North,-999,-999.0,-999.0,5,0.00,,,-99.99,0.0,Linux-Irox,2013-08-16 13:05:00,
2013-08-16 06:15:00,65.1,30.9,29.57,North,-999,-999.0,-999.0,5,0.00,,,-99.99,0.0,Linux-Irox,2013-08-16 13:15:00,
2013-08-16 06:25:00,64.8,30.6,29.56,North,-999,-999.0,-999.0,5,0.00,,,-99.99,0.0,Linux-Irox,2013-08-16 13:25:00,
2013-08-16 06:31:00,64.6,30.4,29.56,North,-999,-999.0,-999.0,5,0.00,,,-99.99,0.0,Linux-Irox,2013-08-16 13:31:00,
2013-08-16 06:35:00,64.2,30.0,29.56,North,-999,-999.0,-999.0,5,0.00,,,-99.99,0.0,Linux-Irox,2013-08-16 13:35:00,
2013-08-16 06:45:00,64.0,29.8,29.57,North,-999,-999.0,-999.0,5,0.00,,,-99.99,0.0,Linux-Irox,2013-08-16 13:45:00,
2013-08-16 06:46:00,64.0,29.8,29.57,North,-999,-999.0,-999.0,5,0.00,,,-99.99,0.0,Linux-Irox,2013-08-16 13:46:00,
2013-08-16 06:55:00,64.6,30.4,29.57,North,-999,-999.0,-999.0,5,0.00,,,-99.99,0.0,Linux-Irox,2013-08-16 13:55:00,
2013-08-16 07:01:00,64.6,30.4,29.57,North,-999,-999.0,-999.0,5,0.00,,,-99.99,0.0,Linux-Irox,2013-08-16 14:01:00,
2013-08-16 07:05:00,64.8,30.6,29.57,North,-999,-999.0,-999.0,5,0.00,,,-99.99,0.0,Linux-Irox,2013-08-16 14:05:00,
2013-08-16 07:15:00,66.7,32.5,29.57,North,-999,-999.0,-999.0,5,0.00,,,-99.99,0.0,Linux-Irox,2013-08-16 14:15:00,
2013-08-16 07:16:00,66.7,32.5,29.57,North,-999,-999.0,-999.0,5,0.00,,,-99.99,0.0,Linux-Irox,2013-08-16 14:16:00,
2013-08-16 07:25:00,72.1,37.9,29.58,North,-999,-999.0,-999.0,5,0.00,,,-99.99,0.0,Linux-Irox,2013-08-16 14:25:00,
2013-08-16 07:31:00,73.9,39.7,29.58,North,-999,-999.0,-999.0,5,0.00,,,-99.99,0.0,Linux-Irox,2013-08-16 14:31:00,
2013-08-16 07:35:00,73.9,39.7,29.58,North,-999,-999.0,-999.0,5,0.00,,,-99.99,0.0,Linux-Irox,2013-08-16 14:35:00,
2013-08-16 07:45:00,77.5,43.3,29.57,North,-999,-999.0,-999.0,5,0.00,,,-99.99,0.0,Linux-Irox,2013-08-16 14:45:00,
2013-08-16 07:46:00,77.5,43.3,29.57,North,-999,-999.0,-999.0,5,0.00,,,-99.99,0.0,Linux-Irox,2013-08-16 14:46:00,
2013-08-16 07:55:00,82.4,48.2,29.57,North,-999,-999.0,-999.0,5,0.00,,,-99.99,0.0,Linux-Irox,2013-08-16 14:55:00,
2013-08-16 08:01:00,82.9,48.7,29.57,North,-999,-999.0,-999.0,5,0.00,,,-99.99,0.0,Linux-Irox,2013-08-16 15:01:00,
2013-08-16 08:16:00,86.5,52.3,29.57,North,-999,-999.0,-999.0,5,0.00,,,-99.99,0.0,Linux-Irox,2013-08-16 15:16:00,
2013-08-16 08:31:00,89.6,55.4,29.57,North,-999,-999.0,-999.0,5,0.00,,,-99.99,0.0,Linux-Irox,2013-08-16 15:31:00,